[[{"header":{"parameterUnit":"m.s-1","parameterCategory":1,"la1":30.2991,"la2":30.254,"lo1":-89.0895,"lo2":-89.0444,"dy":0.0017,"dx":0.0017,"nx":28,"ny":28,"refTime":"2023-08-20T21:00:00:Z","depth":0,"parameterNumber":2,"parameterNumberName":"U-component_of_WINDS"},"data":[0,0,0,0,0,0,0,0,0,0,0,0,0,0,0,0,0,0,0,0,0,0,0,0,0,0,0,0,0,0,0,0,0,0,0,0,0,0,0,0,0,0,0,0,0,0,0,0,0,0,0,0,0,0,0,0,0,0,-4.4493,-4.4493,0,-4.4483,-4.4482,-4.4482,-4.4321,-4.4317,-4.4313,-4.4309,-4.4298,-4.4301,-4.4305,0,0,0,0,0,0,0,0,0,0,0,0,0,-4.4375,-4.4378,-4.4494,-4.4493,-4.4493,-4.4483,-4.4482,-4.4482,-4.4322,-4.4317,-4.4312,-4.4307,-4.4297,-4.4301,-4.4305,0,0,0,0,0,0,0,0,0,0,0,0,0,-4.4402,-4.4379,-4.4494,-4.4412,-4.4404,-4.4483,-4.4482,-4.4482,-4.4323,-4.4316,-4.431,-4.4305,-4.4295,-4.4301,-4.4306,-4.4462,0,0,-4.4322,-4.4324,0,0,0,0,0,0,0,0,-4.44,-4.4406,-4.4424,-4.4418,-4.4409,-4.4397,-4.4436,-4.4475,-4.4324,-4.4354,-4.4309,-4.4302,-4.4336,-4.4337,-4.4349,-4.4461,-4.4461,-4.4322,-4.4326,-4.4328,-4.4329,0,0,0,0,0,0,0,-4.4399,-4.4406,-4.4489,-4.4424,-4.4416,-4.4375,-4.4372,-4.4443,-4.4379,-4.4351,-4.4339,-4.434,-4.4331,-4.4344,-4.4347,-4.4461,-4.4322,-4.4327,-4.433,-4.4332,-4.4699,-4.4705,0,0,0,0,0,0,-4.4408,-4.4405,-4.4489,-4.4489,-4.439,-4.4383,-4.4379,-4.4407,-4.4378,-4.4368,-4.4345,-4.4332,-4.4338,-4.4341,-4.4347,-4.4525,-4.4328,-4.4333,-4.4336,-4.4692,-4.47,-4.4707,0,0,0,0,0,0,-4.4406,-4.4417,-4.449,-4.4444,-4.445,-4.4391,-4.4424,-4.441,-4.4423,-4.4374,-4.4362,-4.4371,-4.4333,-4.4339,-4.4434,-4.4523,-4.4335,-4.434,-4.4685,-4.4695,-4.4704,-4.4886,0,0,0,0,0,0,-4.4403,-4.4417,-4.4476,-4.4446,-4.4453,-4.4578,-4.4429,-4.4414,-4.4433,-4.4416,-4.4395,-4.4385,-4.4329,-4.4427,-4.4439,-4.4527,-4.4344,-4.4676,-4.4689,-4.4701,-4.4872,-4.4901,-4.4926,0,0,0,0,0,-4.44,-4.4528,-4.448,-4.4491,-4.4525,-4.4583,-4.4587,-4.452,-4.4441,-4.4499,-4.4467,-4.4386,-4.4512,-4.4438,-4.445,-4.4541,-4.467,-4.4685,-4.47,-4.486,-4.4895,-4.4925,0,0,0,0,0,0,-4.457,-4.4523,-4.4469,-4.4591,-4.4593,-4.4556,-4.4627,-4.456,-4.4584,-4.4567,-4.4483,-4.4479,-4.4587,-4.4573,-4.4492,-4.469,-4.4577,-4.4595,-4.4694,-4.4727,-4.4754,-4.4754,-4.4349,0,0,0,0,0,-4.4622,-4.4673,-4.4629,-4.4742,-4.4745,-4.4687,-4.471,-4.4658,-4.4656,-4.4655,-4.463,-4.4632,-4.4671,-4.4699,-4.4733,-4.487,-4.4862,-4.4938,-4.4966,-4.4988,-4.5004,-4.5074,-4.5107,-4.4756,-4.4756,-4.4755,0,0,-4.4729,-4.471,-4.4747,-4.4775,-4.477,-4.4825,-4.4688,-4.4752,-4.4791,-4.4665,-4.4752,-4.4735,-4.473,-4.4847,-4.4897,-4.4839,-4.5099,-4.5007,-4.5025,-4.5028,-4.5093,-4.5126,-4.5156,-4.4766,-4.4764,-4.4762,0,0,-4.4952,-4.4944,-4.5036,-4.5033,-4.5027,-4.4988,-4.501,-4.4984,-4.4967,-4.5054,-4.496,-4.5006,-4.5076,-4.5076,-4.5086,-4.531,-4.5236,-4.5324,-4.5464,-4.5534,-4.5561,-4.5585,-4.5664,-4.5693,-4.534,-4.5341,-4.5341,0,-4.5087,-4.5165,-4.5092,-4.5161,-4.5176,-4.5064,-4.5156,-4.5158,-4.5164,-4.5176,-4.5112,-4.5197,-4.5186,-4.53,-4.5355,-4.5368,-4.539,-4.5325,-4.5563,-4.5587,-4.5608,-4.5682,-4.5712,-4.5351,-4.535,-4.5349,-4.5348,0,-4.5329,-4.5385,-4.546,-4.5468,-4.5491,-4.5573,-4.5511,-4.5544,-4.549,-4.5458,-4.5547,-4.5531,-4.5559,-4.5582,-4.5531,-4.569,-4.5654,-4.5578,-4.5462,-4.5654,-4.5721,-4.5749,-4.5367,-4.5363,-4.536,-4.5357,0,0,-4.5658,-4.5624,-4.5653,-4.5654,-4.564,-4.5681,-4.5758,-4.5785,-4.5814,-4.5822,-4.5883,-4.5945,-4.5874,-4.5886,-4.5834,-4.5895,-4.6072,-4.5811,-4.581,-4.5858,-4.6244,-4.63,-4.6334,-4.6024,-4.6029,-4.6033,-4.6244,0,-4.5871,-4.5998,-4.5934,-4.6069,-4.6119,-4.6014,-4.608,-4.6079,-4.6051,-4.6089,-4.6058,-4.6103,-4.6007,-4.6013,-4.607,-4.6039,-4.6148,-4.6023,-4.6078,-4.6081,-4.608,-4.6369,-4.6428,-4.6628,-4.627,-4.6274,-4.6278,0,-4.6137,-4.6155,-4.6295,-4.6271,-4.6289,-4.635,-4.6369,-4.6408,-4.6404,-4.6379,-4.6392,-4.6325,-4.6398,-4.6285,-4.6383,-4.63,-4.6319,-4.6308,-4.6314,-4.6314,-4.6189,-4.6376,-4.669,-4.6719,-4.6319,-4.6316,-4.6313,0,-4.6359,-4.642,-4.6511,-4.6516,-4.649,-4.6535,-4.6527,-4.6516,-4.6537,-4.6554,-4.6566,-4.6593,-4.6607,-4.6629,-4.6571,-4.6495,-4.6677,-4.656,-4.6657,-4.6659,-4.6698,-4.6696,-4.7018,-4.6715,-4.6715,-4.6714,-4.6714,0,-4.6603,-4.6692,-4.661,-4.6666,-4.6763,-4.669,-4.6787,-4.6767,-4.676,-4.6809,-4.6722,-4.677,-4.6692,-4.6734,-4.6689,-4.6777,-4.6784,-4.6766,-4.6752,-4.6772,-4.6774,-4.6782,-4.6766,-4.6722,-4.672,-4.6719,-4.6718,0,-4.6867,-4.6816,-4.6908,-4.6877,-4.6871,-4.6943,-4.6916,-4.6966,-4.6933,-4.6997,-4.7008,-4.6955,-4.6999,-4.6944,-4.6984,-4.6954,-4.7072,-4.7039,-4.7073,-4.7063,-4.7163,-4.7154,-4.7499,-4.754,-4.7214,-4.7217,-4.7219,0,-4.7025,-4.7091,-4.7066,-4.7093,-4.709,-4.7135,-4.7155,-4.7086,-4.711,-4.7111,-4.7161,-4.7198,-4.7222,-4.7298,-4.7263,-4.7293,-4.7258,-4.7378,-4.7262,-4.728,-4.7258,-4.7253,-4.7259,-4.74,-4.7404,-4.7408,-4.741,0,-4.7309,-4.7281,-4.7313,-4.7337,-4.7363,-4.7379,-4.7388,-4.7415,-4.7343,-4.7375,-4.7419,-4.7439,-4.7478,-4.7515,-4.7536,-4.7526,-4.7457,-4.7447,-4.7471,-4.749,-4.7507,-4.7497,-4.7135,-4.7439,-4.7436,-4.7434,-4.7432,-4.7431,-4.7523,-4.7576,-4.7567,-4.7606,-4.7605,-4.7616,-4.7661,-4.7633,-4.7668,-4.7695,-4.7652,-4.7707,-4.7701,-4.7721,-4.772,-4.7762,-4.771,-4.7746,-4.7754,-4.7763,-4.7777,-4.7503,-4.7766,-4.7765,-4.7764,-4.7763,-4.7763,0,-4.78,-4.779,-4.7826,-4.7841,-4.7872,-4.7804,-4.7811,-4.7841,-4.789,-4.7891,-4.7917,-4.7967,-4.8003,-4.7972,-4.8001,-4.8041,-4.8009,-4.805,-4.8045,-4.8044,-4.7823,-4.7798,-4.8075,-4.8075,-4.8075,-4.8075,-4.8075,-4.8075,-4.7948,-4.8034,-4.8005,-4.809,-4.8078,-4.8131,-4.814,-4.815,-4.8149,-4.8209,-4.8238,-4.8218,-4.8206,-4.8233,-4.8263,-4.8253,-4.8267,-4.8319,-4.8298,-4.8091,-4.806,-4.8031,-4.8007,-4.8324,-4.8324,-4.8516,-4.8517,-4.8519]},{"header":{"parameterUnit":"m.s-1","parameterCategory":1,"la1":30.2991,"la2":30.254,"lo1":-89.0895,"lo2":-89.0444,"dy":0.0017,"dx":0.0017,"nx":28,"ny":28,"refTime":"2023-08-20T21:00:00:Z","depth":0,"parameterNumber":3,"parameterNumberName":"V-component_of_WINDS"},"data":[0,0,0,0,0,0,0,0,0,0,0,0,0,0,0,0,0,0,0,0,0,0,0,0,0,0,0,0,0,0,0,0,0,0,0,0,0,0,0,0,0,0,0,0,0,0,0,0,0,0,0,0,0,0,0,0,0,0,-0.4122,-0.4122,0,-0.418,-0.418,-0.4181,-0.4232,-0.4233,-0.4234,-0.4234,-0.4293,-0.4294,-0.4295,0,0,0,0,0,0,0,0,0,0,0,0,0,-0.4053,-0.4054,-0.4122,-0.4122,-0.4123,-0.418,-0.4181,-0.4181,-0.4232,-0.4233,-0.4234,-0.4234,-0.4293,-0.4294,-0.4295,0,0,0,0,0,0,0,0,0,0,0,0,0,-0.4094,-0.4054,-0.4121,-0.4155,-0.4159,-0.418,-0.4181,-0.4182,-0.4232,-0.4233,-0.4234,-0.4235,-0.4292,-0.4294,-0.4295,-0.4287,0,0,-0.43,-0.4301,0,0,0,0,0,0,0,0,-0.4091,-0.4096,-0.415,-0.4153,-0.4157,-0.42,-0.4178,-0.4217,-0.4232,-0.4204,-0.4234,-0.4235,-0.4261,-0.4265,-0.4274,-0.429,-0.4292,-0.43,-0.4301,-0.4302,-0.4302,0,0,0,0,0,0,0,-0.4088,-0.4094,-0.4145,-0.415,-0.4155,-0.4167,-0.4174,-0.4185,-0.4227,-0.4207,-0.4211,-0.4217,-0.4263,-0.4273,-0.4276,-0.4293,-0.43,-0.4301,-0.4302,-0.4303,-0.4303,-0.4302,0,0,0,0,0,0,-0.4081,-0.4091,-0.4143,-0.4146,-0.4126,-0.4167,-0.4175,-0.4185,-0.4227,-0.4234,-0.4216,-0.4219,-0.427,-0.4274,-0.4278,-0.4271,-0.4302,-0.4303,-0.4304,-0.4304,-0.4302,-0.4301,0,0,0,0,0,0,-0.4079,-0.4085,-0.414,-0.412,-0.4128,-0.4168,-0.4179,-0.4186,-0.4195,-0.4234,-0.4242,-0.4218,-0.4271,-0.4276,-0.4284,-0.4273,-0.4304,-0.4305,-0.4305,-0.4303,-0.4302,-0.4255,0,0,0,0,0,0,-0.4077,-0.4084,-0.4082,-0.4119,-0.4129,-0.4146,-0.4178,-0.4186,-0.4198,-0.4202,-0.4238,-0.4245,-0.4272,-0.4282,-0.4286,-0.4276,-0.4306,-0.4306,-0.4304,-0.4302,-0.4258,-0.4252,-0.4247,0,0,0,0,0,-0.4074,-0.4066,-0.4081,-0.4087,-0.4127,-0.4145,-0.415,-0.4182,-0.4197,-0.4194,-0.4219,-0.4244,-0.4274,-0.4282,-0.4287,-0.4278,-0.4307,-0.4304,-0.4302,-0.426,-0.4253,-0.4248,0,0,0,0,0,0,-0.4027,-0.4072,-0.4089,-0.4093,-0.4115,-0.4154,-0.4152,-0.4174,-0.4191,-0.4195,-0.4233,-0.424,-0.4244,-0.4261,-0.427,-0.4271,-0.4293,-0.4292,-0.4259,-0.4253,-0.4248,-0.4244,-0.4308,0,0,0,0,0,-0.4016,-0.4028,-0.4067,-0.4067,-0.4076,-0.4112,-0.4121,-0.4143,-0.4167,-0.4176,-0.4202,-0.4223,-0.4238,-0.4246,-0.4262,-0.426,-0.4268,-0.4256,-0.4251,-0.4246,-0.4245,-0.4244,-0.4239,-0.4295,-0.4295,-0.4295,0,0,-0.3996,-0.4022,-0.4027,-0.4058,-0.4077,-0.4087,-0.4119,-0.4129,-0.4137,-0.4178,-0.4187,-0.4206,-0.4232,-0.4235,-0.4238,-0.425,-0.4231,-0.4244,-0.424,-0.4241,-0.4242,-0.4236,-0.4232,-0.4293,-0.4293,-0.4294,0,0,-0.3964,-0.3985,-0.3987,-0.4005,-0.4034,-0.4057,-0.4057,-0.4092,-0.4106,-0.4116,-0.4146,-0.4155,-0.418,-0.4197,-0.4209,-0.4181,-0.4203,-0.4184,-0.4158,-0.4157,-0.4152,-0.4149,-0.4138,-0.4134,-0.4183,-0.4183,-0.4183,0,-0.3935,-0.3952,-0.3985,-0.3993,-0.4005,-0.4041,-0.4043,-0.4059,-0.4091,-0.4098,-0.4111,-0.4141,-0.4162,-0.4168,-0.4161,-0.417,-0.4171,-0.4181,-0.415,-0.4147,-0.4144,-0.4134,-0.413,-0.418,-0.4181,-0.4181,-0.4181,0,-0.3915,-0.3925,-0.3923,-0.3953,-0.3965,-0.3969,-0.4002,-0.401,-0.403,-0.4051,-0.406,-0.4085,-0.4106,-0.4109,-0.4129,-0.4118,-0.4125,-0.4143,-0.4167,-0.4136,-0.4127,-0.4124,-0.4177,-0.4178,-0.4178,-0.4179,0,0,-0.3856,-0.3902,-0.3901,-0.3914,-0.3947,-0.3956,-0.3961,-0.3981,-0.3987,-0.4007,-0.4012,-0.403,-0.4047,-0.406,-0.4083,-0.4082,-0.4057,-0.4101,-0.4102,-0.4091,-0.4045,-0.403,-0.4026,-0.4071,-0.4071,-0.407,-0.4042,0,-0.3829,-0.3842,-0.387,-0.3873,-0.3883,-0.3917,-0.3922,-0.3942,-0.3961,-0.3972,-0.3994,-0.4006,-0.4028,-0.4036,-0.4037,-0.406,-0.4048,-0.4062,-0.4076,-0.4076,-0.4069,-0.4021,-0.4007,-0.3979,-0.4039,-0.4039,-0.4038,0,-0.3801,-0.3818,-0.3822,-0.3853,-0.3858,-0.3861,-0.3881,-0.3891,-0.3914,-0.3928,-0.3942,-0.3966,-0.3972,-0.3993,-0.4002,-0.4011,-0.4018,-0.403,-0.403,-0.4033,-0.4056,-0.4023,-0.3971,-0.3967,-0.4034,-0.4034,-0.4034,0,-0.3757,-0.3781,-0.3786,-0.3797,-0.3833,-0.3834,-0.3849,-0.3873,-0.3883,-0.39,-0.3906,-0.3923,-0.3933,-0.3945,-0.3973,-0.3986,-0.3978,-0.4002,-0.3989,-0.3989,-0.3987,-0.3987,-0.3936,-0.3991,-0.3991,-0.3991,-0.3991,0,-0.3725,-0.3725,-0.3767,-0.377,-0.3772,-0.3804,-0.3804,-0.3822,-0.3843,-0.3849,-0.388,-0.3885,-0.3921,-0.393,-0.3952,-0.3955,-0.3959,-0.3971,-0.3976,-0.3968,-0.3967,-0.3974,-0.3977,-0.399,-0.399,-0.399,-0.3991,0,-0.3677,-0.3705,-0.3712,-0.3745,-0.3754,-0.3753,-0.3781,-0.3785,-0.3806,-0.3814,-0.3817,-0.385,-0.3862,-0.389,-0.391,-0.3925,-0.3922,-0.3933,-0.3915,-0.3918,-0.3905,-0.3905,-0.3857,-0.3852,-0.391,-0.3909,-0.3908,0,-0.3655,-0.3656,-0.3689,-0.3695,-0.3709,-0.3719,-0.3729,-0.376,-0.3768,-0.3793,-0.3794,-0.3808,-0.3822,-0.3839,-0.3864,-0.3879,-0.389,-0.3872,-0.3893,-0.3884,-0.389,-0.3889,-0.3889,-0.3868,-0.3867,-0.3866,-0.3866,0,-0.3612,-0.3625,-0.3638,-0.3655,-0.3665,-0.368,-0.3697,-0.37,-0.3735,-0.3743,-0.3755,-0.3766,-0.3785,-0.3799,-0.3817,-0.3832,-0.3854,-0.3859,-0.3857,-0.3848,-0.3838,-0.3843,-0.3902,-0.386,-0.3861,-0.3861,-0.3861,-0.3861,-0.3576,-0.3578,-0.3601,-0.3614,-0.3629,-0.3643,-0.3648,-0.3669,-0.368,-0.3699,-0.3716,-0.3727,-0.3748,-0.3775,-0.3788,-0.3796,-0.3808,-0.3805,-0.3804,-0.3803,-0.3799,-0.3836,-0.38,-0.38,-0.38,-0.38,-0.38,0,-0.3535,-0.3551,-0.3562,-0.3584,-0.3593,-0.3612,-0.3631,-0.3638,-0.3647,-0.3665,-0.3677,-0.369,-0.3703,-0.3728,-0.3743,-0.3745,-0.3755,-0.3748,-0.3748,-0.3751,-0.3788,-0.3788,-0.3739,-0.3739,-0.3739,-0.3739,-0.3739,-0.3739,-0.3514,-0.3519,-0.3534,-0.3546,-0.3562,-0.3573,-0.3581,-0.3594,-0.3609,-0.3622,-0.3633,-0.3649,-0.367,-0.3686,-0.3698,-0.3705,-0.3709,-0.3698,-0.3708,-0.3743,-0.3749,-0.3754,-0.3755,-0.3699,-0.3699,-0.3671,-0.3671,-0.367]}]]